{"data":{"norad_id":63984,"intl_designator":"2025-100C","name":"SCS-01 C","alt_names":[],"object_type":"PAYLOAD","status":"ACTIVE","operator":null,"country":"PRC","launch_date":"2025-05-14","launch_site_code":"JSC","launch_vehicle":null,"mission":null,"orbit_class":"UNKNOWN","rcs_meters":null,"size_class":null,"mass_kg":null,"dimensions":null,"purposes":[],"wikipedia_slug":null,"has_3d_model":false,"image_url":null,"decayed_at":null,"tle_current":{"epoch":"2026-09-21T10:43:28.024896Z","epoch_age_seconds":117449,"freshness":"FRESH","line1":"1 63984U 25100C   26264.44685214  .00004818  00000+0  21518-3 0  9992","line2":"2 63984  97.3586 335.0445 0029774  28.5982 331.6879 15.21423474 75256","mean_motion":15.21423474,"eccentricity":0.0029774,"inclination_deg":97.3586,"raan_deg":335.0445,"arg_perigee_deg":28.5982,"mean_anomaly_deg":331.6879,"bstar":0.00021518,"rev_number":7525,"period_min":94.648204435421,"perigee_km":481.06251807803,"apogee_km":522.02965492152,"semimajor_km":6879.6830864998,"source":"CELESTRAK","updated_at":"2026-09-22T09:00:29.477782Z"}}}